CT2IRK-11 Weather Reports


time (UTC)temp
C
wind
direction
speed
KPH
gust
KPH
rain 1hr
cm
rain 24hr
cm
rain mn
cm
humidity
%
barometer
mb
20260506084005 18 356 0.0 9.7 0.00 0.00 0.00 66 1007.7
20260506083005 17 58 0.0 9.7 0.00 0.00 0.00 68 1007.6
20260506073005 16 9 0.0 0.0 0.00 0.00 0.00 71 1007.8
20260506072005 17 8 0.0 0.0 0.00 0.00 0.00 68 1007.7
20260506071005 17 298 0.0 0.0 0.00 0.00 0.00 69 1007.8
20260506062005 11 135 0.0 0.0 0.00 0.00 0.00 95 1007.5
20260506061005 10 139 0.0 0.0 0.00 0.00 0.00 99 1007.4
20260506045005 10 147 0.0 0.0 0.00 0.00 0.00 99 1007.4
20260506042006 10 242 0.0 0.0 0.00 0.00 0.00 99 1007.5
20260506041005 10 112 0.0 0.0 0.00 0.00 0.00 99 1007.6
20260506035005 10 135 0.0 0.0 0.00 0.00 0.00 99 1007.6
20260506034006 10 304 0.0 1.6 0.00 0.00 0.00 99 1007.6
20260506033006 10 270 0.0 0.0 0.00 0.00 0.00 98 1007.6
20260506032006 11 259 0.0 0.0 0.00 0.00 0.00 96 1007.7
20260506030005 11 80 0.0 1.6 0.00 0.00 0.00 97 1007.7
20260506024006 11 10 0.0 0.0 0.00 0.00 0.00 97 1007.9
20260506023005 11 44 1.6 3.2 0.00 0.00 0.00 97 1008.0
20260506022006 11 79 0.0 0.0 0.00 0.00 0.00 97 1007.8
20260506021005 11 19 0.0 0.0 0.00 0.00 0.00 97 1008.0
20260506020005 11 22 0.0 0.0 0.00 0.00 0.00 98 1008.2
20260506015005 11 78 0.0 0.0 0.00 0.00 0.00 98 1008.2
20260506014005 11 85 0.0 0.0 0.00 0.00 0.00 97 1008.3
20260506013006 11 0 0.0 0.0 0.00 0.00 0.00 96 1008.5
20260506012005 11 325 0.0 0.0 0.00 0.00 0.00 95 1008.5
20260506010005 12 47 0.0 9.7 0.00 0.00 0.00 94 1008.5
20260506005006 12 22 3.2 9.7 0.00 0.00 0.00 94 1008.6
20260506004006 12 9 3.2 8.0 0.00 0.00 0.00 94 1008.8
20260506003005 12 30 0.0 1.6 0.00 0.00 0.00 94 1008.9
20260506002006 12 5 0.0 1.6 0.00 0.00 0.00 94 1009.0
20260506001005 12 4 0.0 1.6 0.00 0.00 0.00 93 1009.2
20260505235005 12 10 1.6 3.2 0.00 0.00 0.00 91 1009.3
20260505234005 12 15 0.0 1.6 0.00 0.00 0.00 90 1009.4
20260505233005 12 50 0.0 3.2 0.00 0.00 0.00 90 1009.6
20260505232006 12 68 0.0 1.6 0.00 0.00 0.00 90 1009.4
20260505231005 13 45 3.2 9.7 0.00 0.00 0.00 89 1009.6
20260505230005 13 29 8.0 11.3 0.00 0.00 0.00 88 1009.8
20260505225005 13 345 1.6 1.6 0.00 0.00 0.00 87 1009.8
20260505224005 13 22 1.6 1.6 0.00 0.00 0.00 87 1009.9
20260505223005 13 8 0.0 0.0 0.00 0.00 0.00 87 1010.0
20260505222005 13 45 0.0 0.0 0.00 0.00 0.00 86 1010.0
20260505221005 13 49 0.0 0.0 0.00 0.00 0.00 84 1010.2
20260505215005 13 56 0.0 4.8 0.00 0.00 0.00 83 1010.2
20260505214005 13 32 8.0 9.7 0.00 0.00 0.00 82 1010.2
20260505213005 14 357 9.7 11.3 0.00 0.00 0.00 82 1010.1
20260505212005 14 9 9.7 12.9 0.00 0.00 0.00 82 1010.1
20260505211005 14 9 9.7 16.1 0.00 0.00 0.00 81 1010.3
20260505210005 14 0 4.8 11.3 0.00 0.00 0.00 80 1010.3
20260505205005 14 24 0.0 12.9 0.00 0.00 0.00 79 1010.2
20260505204006 14 25 8.0 9.7 0.00 0.00 0.00 77 1010.2
20260505203005 14 42 0.0 0.0 0.00 0.00 0.00 75 1010.1
20260505202005 15 5 4.8 12.9 0.00 0.00 0.00 73 1009.9
20260505200005 15 19 4.8 11.3 0.00 0.00 0.00 70 1009.7
20260505195005 15 20 8.0 11.3 0.00 0.00 0.00 68 1009.7
20260505194005 16 334 11.3 19.3 0.00 0.00 0.00 66 1009.6
20260505193005 16 318 1.6 16.1 0.00 0.00 0.00 67 1009.4
20260505192005 16 100 11.3 16.1 0.00 0.00 0.00 65 1009.3
20260505191005 17 334 12.9 19.3 0.00 0.00 0.00 62 1009.4
20260505190005 17 331 14.5 22.5 0.00 0.00 0.00 59 1009.2
20260505185005 18 18 16.1 29.0 0.00 0.00 0.00 59 1009.2
20260505183006 18 288 12.9 20.9 0.00 0.00 0.00 56 1008.8
20260505182006 18 299 20.9 27.4 0.00 0.00 0.00 55 1008.8
20260505181005 18 276 19.3 27.4 0.00 0.00 0.00 55 1008.8
20260505175005 19 284 20.9 27.4 0.00 0.00 0.00 53 1008.7
20260505172005 20 300 19.3 27.4 0.00 0.00 0.00 52 1008.6
20260505171005 20 319 14.5 24.1 0.00 0.00 0.00 50 1008.7
20260505165005 20 335 12.9 24.1 0.00 0.00 0.00 52 1008.7
20260505163006 20 305 14.5 24.1 0.00 0.00 0.00 52 1008.5
20260505162006 20 297 11.3 20.9 0.00 0.00 0.00 50 1008.5
20260505161006 20 292 11.3 16.1 0.00 0.00 0.00 53 1008.4
20260505151005 20 310 11.3 20.9 0.00 0.00 0.00 54 1008.9
20260505124005 21 349 1.6 19.3 0.00 0.00 0.00 43 1009.7
20260505123005 22 38 1.6 20.9 0.00 0.00 0.00 44 1009.7
20260505122005 21 20 9.7 14.5 0.00 0.00 0.00 45 1009.9
20260505121005 20 314 11.3 16.1 0.00 0.00 0.00 47 1010.0
20260505120005 21 319 4.8 19.3 0.00 0.00 0.00 42 1010.1
20260505115005 22 13 3.2 19.3 0.00 0.00 0.00 39 1010.1
20260505114005 21 15 1.6 11.3 0.00 0.00 0.00 44 1010.2
20260505113005 20 44 1.6 20.9 0.00 0.00 0.00 50 1010.3
20260505112005 20 303 9.7 20.9 0.00 0.00 0.00 50 1010.4
20260505111005 20 24 0.0 11.3 0.00 0.00 0.00 47 1010.4
20260505101005 21 284 0.0 0.0 0.00 0.00 0.00 49 1010.6
20260505100004 20 292 0.0 0.0 0.00 0.00 0.00 53 1010.5
20260505095004 22 264 0.0 0.0 0.00 0.00 0.00 47 1010.6
20260505094005 21 302 0.0 0.0 0.00 0.00 0.00 49 1010.6
20260505093005 19 270 0.0 0.0 0.00 0.00 0.00 57 1010.7
20260505092005 20 330 0.0 1.6 0.00 0.00 0.00 56 1010.7
20260505091005 22 292 0.0 0.0 0.00 0.00 0.00 49 1010.7
20260505090005 21 280 0.0 0.0 0.00 0.00 0.00 54 1010.7